Weather Roundup
Issued by NWS Corpus Christi, TX

Home | Current Version | Previous Version | Text Only | Print | Product List | Glossary On
Versions: 1 2 3 4 5 6 7 8 9 10 11 12 13 14 15 16 17 18 19 20 21 22 23 24 25 26 27 28 29 30 31 32 33 34 35 36 37 38 39 40 41 42 43 44 45 46 47 48 49 50
000
ASUS44 KCRP 261710
HRRCRP

SOUTH TEXAS REGIONAL WEATHER ROUNDUP
NATIONAL WEATHER SERVICE CORPUS CHRISTI TX
1200 PM CDT FRI AUG 26 2016


TXZ229>244-261800-
...CORPUS CHRISTI AREA OBSERVATIONS...

CITY           SKY/WX    TMP DP  RH WIND       PRES   REMARKS
CORPUS CHRISTI PTSUNNY   92  75  57 CALM      30.00S HX 103
NAS CORPUS CHR NOT AVBL
ROCKPORT       CLOUDY    91  75  59 N8        30.00F HX 101
KINGSVILLE NAS PTSUNNY   89  74  60 VRB3      29.99F HX  98
ALICE          NOT AVBL
FALFURRIAS     MOSUNNY   90  71  53 CALM      29.99F HX  96
$$

...VICTORIA AREA OBSERVATIONS...

CITY           SKY/WX    TMP DP  RH WIND       PRES   REMARKS
VICTORIA       CLOUDY    88  77  69 NE5       30.03S HX 100
BEEVILLE       FAIR      87  78  74 CALM      30.03S HX  98
PLEASANTON     PTSUNNY   86  71  60 NE5       30.05F HX  92
SAN ANTONIO    PTSUNNY   85  71  63 CALM      30.06F HX  90
$$

...LAREDO AREA OBSERVATIONS...

CITY           SKY/WX    TMP DP  RH WIND       PRES   REMARKS
LAREDO         SUNNY     89  73  59 SE10      30.01F HX  97
COTULLA        MOSUNNY   89  71  55 NE5       30.02F HX  95
DEL RIO        MOSUNNY   84  71  65 E8        30.03F
MCALLEN        MOSUNNY   94  73  50 SE8       29.98F HX 103
HEBBRONVILLE   MOSUNNY   87  72  60 CALM      30.03S HX  94
$$

...OTHER TEXAS OBSERVATIONS...

CITY           SKY/WX    TMP DP  RH WIND       PRES   REMARKS
BROWNSVILLE    MOSUNNY   92  72  51 VRB5      29.97F HX  99
HOUSTON        CLOUDY    83  74  74 NE5       30.05S
COL. STATION   CLOUDY    83  76  79 NE3       30.06F HX  91
AUSTIN         PTSUNNY   87  73  62 VRB6      30.05F HX  94
WACO           SUNNY     87  74  64 VRB3      30.06F HX  95
FORT WORTH     PTSUNNY   87  74  64 SE6       30.06F HX  95
WICHITA FALLS  SUNNY     90  66  45 SW13G18   30.05S HX  92
LUBBOCK        CLOUDY    71  63  75 VRB3      30.19S
EL PASO        MOSUNNY   78  58  49 SE7       30.15S
$$

...MARINE OBSERVATIONS...

STATION/POSITION TIME  SKY/WX   TEMP    WIND        PRES    VSBY  WAVE   SWELL
                                AIR SEA DIR/SP/G                  HT/PER HT/PER
                 (UTC)          (F)     (DEG/KT/KT) (MB)    (MI)  (FT/S) (FT/S)
PORT ARANSAS     1700            84 87   60/  6/  7 1016.3R
BUOY 90 E PORT A 1650            85 86   50/  8/ 10 1016.0S         3/ 6   3/ 6
BUOY 45 SE BAFFI 1650            84 86   10/  8/  8 1015.2F         2/ 5   2/ 5
BUOY 200 E PT IS 1650            85 87   70/  8/ 10 1013.9F         2/ 6   2/ 6
BUOY 15 E GALVES 1650            81 86   30/ 12/ 16 1016.8R         2/ 5
$$



USA.gov is the U.S. government's official web portal to all federal, state and local government web resources and services.